Regional Weather Roundup
Issued by NWS

Home | Current Version | Previous Version | Text Only | Print | Product List | Glossary On
Versions: 1 2 3 4 5 6 7 8 9 10 11 12 13 14 15 16 17 18 19 20 21 22 23 24 25 26 27 28 29 30 31 32 33 34 35 36 37 38 39 40 41 42 43 44 45 46 47 48 49 50
000
ASUS42 KKEY 222010
RWRKEY

FLORIDA REGIONAL WEATHER ROUNDUP FOR THE FLORIDA KEYS
NATIONAL WEATHER SERVICE KEY WEST FLORIDA
400 PM EDT MON SEP 22 2014

...SOUTH FLORIDA AND THE KEYS...

CITY           SKY/WX    TMP DP  RH WIND       PRES   REMARKS
FORT MYERS     CLOUDY    76  71  85 NW6       29.96F
SW REGIONAL AP CLOUDY    84  72  67 W8        29.96F
NAPLES         CLOUDY    81  71  71 W8        29.96F
MIAMI          PTSUNNY   86  75  69 E8        29.95F HX  95
WEST KENDALL   LGT RAIN  87  70  56 SE8       29.95F HX  92
HOMESTEAD      PTSUNNY   85  74  71 SE5       29.95F HX  92
MARATHON       MOSUNNY   84  76  76 SE9       29.94F HX  93
BOCA CHICA NAS PTSUNNY   87  74  64 SE10      29.95F HX  95
KEY WEST INTL  CLOUDY    85  76  74 SE6       29.95F HX  94

...INTERNATIONAL WEATHER...

CITY           SKY/WX    TMP DP  RH WIND       PRES   REMARKS
NASSAU BAHAMAS MOSUNNY   88  75  66 SE10      29.99S HX  97
CANCUN MEXICO  PTSUNNY   84  77  79 SE10      29.92F HX  94
COZUMEL MEXICO PTSUNNY   84  75  74 SE14      29.91F HX  92

ADJACENT COASTAL WATERS...

STATION/POSITION TIME  SKY/WX   TEMP    WIND        PRES    WAVE
                                AIR SEA DIR/SP/G            HT/PER
                 (UTC)          (F)     (DEG/KT/KT) (MB)    (FT/S)
PULASKI SHOAL LI 2000            83     130/ 12/ 13 1013.7F
SAND KEY         1940            81     110/  6/  7 1013.9F
SOMBRERO KEY     2000            83     120/ 12/ 13 1014.6F
LONG KEY         2000            82 85  150/ 12/ 14 1014.6F
MOLASSES REEF    2000            81 86   90/  7/  9 1013.7F
FOWEY ROCKS      2000            83 85   90/  9/ 10 1014.6F
Buoy 42080       NOT AVBL

$$


USA.gov is the U.S. government's official web portal to all federal, state and local government web resources and services.